{"data":{"norad_id":55952,"intl_designator":"2023-037AQ","name":"STARLINK-5893","alt_names":[],"object_type":"PAYLOAD","status":"ACTIVE","operator":null,"country":"US","launch_date":"2023-03-17","launch_site_code":"AFWTR","launch_vehicle":null,"mission":null,"orbit_class":"UNKNOWN","rcs_meters":null,"size_class":null,"mass_kg":null,"dimensions":null,"purposes":["comms"],"wikipedia_slug":null,"has_3d_model":false,"image_url":null,"decayed_at":null,"tle_current":{"epoch":"2026-09-20T01:11:57.492672Z","epoch_age_seconds":145044,"freshness":"FRESH","line1":"1 55952U 23037AQ  26263.04997098  .00000234  00000+0  27442-4 0  9997","line2":"2 55952  69.9985 134.5225 0002837 268.5385  91.5449 14.98330139193582","mean_motion":14.98330139,"eccentricity":0.0002837,"inclination_deg":69.9985,"raan_deg":134.5225,"arg_perigee_deg":268.5385,"mean_anomaly_deg":91.5449,"bstar":2.7442e-5,"rev_number":19358,"period_min":96.106990209853,"perigee_km":570.0836914972,"apogee_km":574.02723069963,"semimajor_km":6950.1924610984,"source":"CELESTRAK","updated_at":"2026-09-21T09:00:33.346182Z"}}}